Location: Lussas
(44.6119°N, 4.4726°E)
Time: 15:50:41
(UTC+00:00)

RESURS DK-1 - Pass Details

Date: 26 November 2020
Orbit: 557 x 560 km, 69.9° (Epoch: 27 January)

Event Time Altitude Azimuth Distance (km) Brightness Sun altitude
Rises 06:07:53 0° 220° (SW) 2,736 5.7 -8.1°
Reaches altitude 10° 06:10:08 10° 226° (SW) 1,845 4.8 -7.7°
Maximum altitude 06:14:08 48° 301° (WNW) 738 2.6 -7.1°
Drops below altitude 10° 06:18:10 10° 17° (NNE) 1,859 5.0 -6.4°
Sets 06:20:27 0° 23° (NNE) 2,759 5.9 -6.1°
